CZ-6A DEB

Satellite information

Favourite Embed

Satellite Type and Status

DEBRISIN ORBIT

Key statistics

Satellite CZ-6A DEB at a glance.

Uptime

913

Days in orbit

Revolutions

≈ 14.5

Per day

Orbit

SSO

Sun Synchronous Orbit

Inclination

98.9

Latest

Satellite identification and parameters

Extended collection of information and parameters for CZ-6A DEB.

Object identification

Identified? True

Debris? True

Object name: CZ-6A DEB

International designator: 2022-151AFM

Object number (NORAD): 56637

Object ID (CCSDS): 56637

Country: PEOPLES REPUBLIC OF CHINA (PRC)

Current information (Y/N): Y

RCS size: SMALL

Orbital parameters

Period: 99.242 minutes

Inclination: 98.8834 deg

SMA: 7100.514 km

Apoapsis: 811.019 km

Periapsis: 633.74 km

RAAN: 191.5732 deg

Eccentricy: 0.0124835

Argument of periapsis: 145.8831 deg

Mean anomaly: 215.0466 deg

Mean motion: 14.51002159 rev/day

Mean motion (dot): 0.00009323 rev/day2

B* drag term: 0.0021407 1/REarth

Two-line elements (TLE)

Creation date: May 11, 2025, 10:21 p.m.

Reference frame: TEME

Reference center: EARTH

Epoch: May 11, 2025, 2:17 p.m. UTC

TLE line 0: 0 CZ-6A DEB

TLE line 1: 1 56637U 22151AFM 25131.59545339 .00009323 00000-0 21407-2 0 9996

TLE line 2: 2 56637 98.8834 191.5732 0124835 145.8831 215.0466 14.51002159118732

Live tracking on map

Real-time ground track for satellite CZ-6A DEB.

In-orbit conjunctions

A list of the most updated potential collisions computed for object CZ-6A DEB.

Target Orbit TCA Probability of collision Miss distance Type
COSMOS 44 LEO 2024-06-16 14:30:59 0.0001472267 420.0 (m) PAYLOAD

Associated space launch

Chinese satellite reported for atmospheric/ocean/environmental/spatial parameter research purposes, details TBD.

CZ-6A DEB was lifted into orbit during the mission ‘Long March 6A | Yunhai 3’, on board a Long March 6A space rocket.

The launch took place on Nov. 11, 2022, 10:52 p.m. from Launch Complex 9A.

For more information about the launch, click the button.

Launch to space Long March 6A | Yunhai 3
Long March 6A | Yunhai 3

Agency: N/A

Status: Launch Successful

Launch date: Nov. 11, 2022, 10:52 p.m. UTC

Rocket: Long March 6A

Launch pad: Launch Complex 9A

Location: Taiyuan Satellite Launch Center, People's Republic of China

...

Latest news about this satellite

There are no fresh news available about this satellite. Check back as we update our databases every day.


Newsletter sign-up

Weekly statistics, charts and insights to help you stay on top of the space industry.